Regional Weather Roundup
Issued by NWS Green Bay, WI

Home | Current Version | Previous Version | Text Only | Print | Product List | Glossary On
Versions: 1 2 3 4 5 6 7 8 9 10 11 12 13 14 15 16 17 18 19 20 21 22 23 24 25 26 27 28 29 30 31 32 33 34 35 36 37 38 39 40 41 42 43 44 45 46 47 48 49 50
000
ASUS43 KGRB 012259
RWRGRB

NORTH-CENTRAL AND NORTHEAST WISCONSIN REGIONAL WEATHER ROUNDUP
NATIONAL WEATHER SERVICE GREEN BAY WI
600 PM CDT MON SEP 01 2014

WIZ005-009-010>012-018-019-020000-
NORTH CENTRAL WISCONSIN

CITY           SKY/WX    TMP DP  RH WIND       PRES   REMARKS
IRONWOOD       NOT AVBL
MANITOWISH WTR NOT AVBL
ARBOR VITAE    NOT AVBL
EAGLE RIVER    NOT AVBL
LAND O LAKES   NOT AVBL
RHINELANDER    SUNNY     70  54  56 W13       29.72R
PHILLIPS       NOT AVBL
ANTIGO         NOT AVBL
TOMAHAWK       NOT AVBL
MERRILL        NOT AVBL
$$

WIZ013-073-020000-
NORTHEAST WISCONSIN

CITY           SKY/WX    TMP DP  RH WIND       PRES   REMARKS
IRON MOUNTAIN  SUNNY     71  62  73 NW7       29.65R
MARINETTE      SUNNY     73  63  68 W7        29.65S
$$

WIZ017-030-035>037-045-020000-
CENTRAL WISCONSIN

CITY           SKY/WX    TMP DP  RH WIND       PRES   REMARKS
MEDFORD        NOT AVBL
WAUSAU         SUNNY     73  58  59 W12G22    29.72R
MOSINEE        SUNNY     72  57  60 W14G20    29.74R
MARSHFIELD     SUNNY     73  58  59 NW12      29.74R
WISC RAPIDS    SUNNY     75  61  61 W9        29.74R
STEVENS POINT  NOT AVBL
WAUPACA        NOT AVBL
SHAWANO        NOT AVBL
CLINTONVILLE   NOT AVBL
$$

WIZ038-039-048-051-020000-
FOX VALLEY

CITY           SKY/WX    TMP DP  RH WIND       PRES   REMARKS
NWS GREEN BAY  MOSUNNY   75  65  70 W9        29.69R
APPLETON       PTSUNNY   73  63  68 W13       29.71R
OSHKOSH        CLOUDY    73  66  78 W8        29.72R
FOND DU LAC    CLOUDY    69  61  75 W12G21    29.74R
$$

WIZ022-050-052-020000-
EAST CENTRAL WISCONSIN

CITY           SKY/WX    TMP DP  RH WIND       PRES   REMARKS
STURGEON BAY   MOSUNNY   73  64  73 SW14      29.68R
MANITOWOC      NOT AVBL
SHEBOYGAN      MOSUNNY   76  65  68 SW13      29.71R
$$

LMZ563-521-522-541>543-020000-
LAKESHORE

STATION/POSITION TIME  TEMP    WIND        PRES    VSBY  WAVE
                       AIR SEA DIR/SP/G                  HT/PER
                 (UTC) (F)     (DEG/KT/KT) (MB)    (MI)  (FT/S)
SHEBOYGAN LKSHOR 2200   76 57  250/ 15/ 17 1005.4S
KEWAUNEE LKSHORE 2200   74     250/  7/ 13 1004.2R
NORTHPORT PIER   2200   74     230/  7/ 13 1003.7S
N MID LAKE BUOY  2200   67 65  220/ 12/ 12 1003.4R         3/ 5
S GREEN BAY BUOY 2200   72     VRB 14/ 16  1005.5R
CHAMBERS ISLAND  2200   71     240/  3/  6 1004.1R
MENOMINEE LKSHOR 2200   73     250/  5/  9 1004.9R
$$



USA.gov is the U.S. government's official web portal to all federal, state and local government web resources and services.